Location: Saint-Hippolyte
(43.6394°N, 4.7559°E)
Time: 14:52:18
(UTC+00:00)

FALCON 9 DEB - Pass Details

Date: 24 October 2020
Orbit: 383 x 397 km, 53.0° (Epoch: 23 November)

Event Time Altitude Azimuth Distance (km) Brightness Sun altitude
Rises 17:49:32 0° 218° (SW) 2,301 7.5 -12.7°
Reaches altitude 10° 17:51:39 10° 211° (SSW) 1,445 6.3 -13.1°
Maximum altitude 17:54:45 43° 139° (SE) 577 3.4 -13.6°
Enters shadow 17:55:57 28° 87° (E) 776 3.8 -13.9°
